Regional Weather Roundup
Issued by NWS

Home | Current Version | Previous Version | Graphics & Text | Print | Product List | Glossary On
Versions: 1 2 3 4 5 6 7 8 9 10 11 12 13 14 15 16 17 18 19 20 21 22 23 24 25 26 27 28 29 30 31 32 33 34 35 36 37 38 39 40 41 42 43 44 45 46 47 48 49 50
000
ASUS43 KOAX 280010
RWRNE

WEATHER ROUNDUP FOR NEBRASKA
NATIONAL WEATHER SERVICE OMAHA NE
600 PM CST THU NOV 27 2014

NOTES: SATELLITE DATA IS BEING USED TO AUGMENT CLOUD COVER ABOVE
       12000 FEET.
       "FAIR" INDICATES FEW OR NO CLOUDS BELOW 12,000 FEET WITH NO
       SIGNIFICANT WEATHER AND/OR OBSTRUCTIONS TO VISIBILITY.

  * THESE STATIONS DO NOT REPORT WEATHER SUCH AS RAIN...SNOW OR FOG.

NEZ001>004-019>022-054>056-280100-
NEBRASKA PANHANDLE

CITY           SKY/WX    TMP DP  RH WIND       PRES   REMARKS
SCOTTSBLUFF    CLEAR     51  29  42 W13       29.98S
6HR MIN TEMP:  29; 6HR MAX TEMP:  55;

ALLIANCE       CLEAR     41  27  57 W10       29.96S
6HR MIN TEMP:  40; 6HR MAX TEMP:  60;

CHADRON        PTCLDY   N/A N/A N/A SW3       29.93R
KIMBALL        PTCLDY    47  28  48 W10       30.04R
SIDNEY         PTCLDY    41  29  62 W10       30.04S
6HR MIN TEMP:  41; 6HR MAX TEMP:  48;

$$

NEZ057>060-069>072-079>082-280100-
SOUTHWEST NEBRASKA

CITY           SKY/WX    TMP DP  RH WIND       PRES   REMARKS
NORTH PLATTE   CLEAR     33  21  61 E8        30.02S WCI  26
6HR MIN TEMP:  32; 6HR MAX TEMP:  50;

IMPERIAL       MOCLDY    49  28  44 S5        30.02F
6HR MIN TEMP:  41; 6HR MAX TEMP:  63;

LEXINGTON      CLEAR     40  23  49 SE9       30.06F WCI  34
MCCOOK         PTCLDY    47  25  42 SE7       30.04F
6HR MIN TEMP:  44; 6HR MAX TEMP:  57;

OGALLALA       CLEAR     38  33  83 W5        30.01S WCI  34
$$

NEZ005>010-023>029-035>040-094-280100-
NORTH CENTRAL NEBRASKA

CITY           SKY/WX    TMP DP  RH WIND       PRES   REMARKS
VALENTINE      CLEAR     40  25  55 CALM      29.95F
6HR MIN TEMP:  31; 6HR MAX TEMP:  45;

AINSWORTH      PTCLDY    36  22  57 S14       29.97F WCI  27
BROKEN BOW     PTCLDY    38  21  50 SE9       30.05F WCI  31
6HR MIN TEMP:  35; 6HR MAX TEMP:  44;

O`NEILL        PTCLDY    32  19  58 SE17      30.07F WCI  20
ORD            CLEAR     33  19  56 SE9       30.10S WCI  25
6HR MIN TEMP:  28; 6HR MAX TEMP:  40;

THEDFORD       PTCLDY    44  25  48 S12       29.99S
$$

NEZ041-046>049-061>064-073>077-083>087-280100-
SOUTH CENTRAL NEBRASKA

CITY           SKY/WX    TMP DP  RH WIND       PRES   REMARKS
GRAND ISLAND   CLEAR     33  17  51 SE13      30.14F WCI  24
6HR MIN TEMP:  30; 6HR MAX TEMP:  38;

AURORA         CLEAR     31  17  57 SE8       30.16F WCI  24
HASTINGS       CLEAR     34  16  47 SE14      30.13F WCI  25
6HR MIN TEMP:  31; 6HR MAX TEMP:  40;

HEBRON         CLEAR     32  15  48 SE9       30.21F WCI  24
HOLDREGE       CLEAR     38  20  49 S10       30.08F WCI  30
KEARNEY *      CLEAR     34  18  51 SE13      30.11F WCI  25
YORK           CLEAR     28  18  64 SE8       30.19F WCI  20
$$

NEZ011>018-030>034-042>045-280100-
NORTHEAST NEBRASKA

CITY           SKY/WX    TMP DP  RH WIND       PRES   REMARKS
NORFOLK        PTCLDY    24  15  68 SE14      30.18F WCI  12
6HR MIN TEMP:  20; 6HR MAX TEMP:  27;

ALBION         CLEAR     30  16  55 SE13      30.15F WCI  20
BLAIR          PTCLDY    22  11  64 SE10      30.28S WCI  11
COLUMBUS *     CLEAR     27  12  54 SE12      30.22F WCI  16
FREMONT        PTCLDY    24  13  61 SE8       30.28S WCI  16
TEKAMAH        MOCLDY    20   7  57 SE12      30.32S WCI   8
6HR MIN TEMP:  16; 6HR MAX TEMP:  22;

WAYNE          PTCLDY    20  10  65 SE12      30.23F WCI   8
$$

NEZ050>053-065>068-078-088>093-280100-
SOUTHEAST NEBRASKA

CITY           SKY/WX    TMP DP  RH WIND       PRES   REMARKS
LINCOLN        CLEAR     28  15  58 SE8       30.27F WCI  20
6HR MIN TEMP:  26; 6HR MAX TEMP:  33;

OMAHA EPPLEY   MOCLDY    22  11  62 SE14      30.32F WCI   9
6HR MIN TEMP:  18; 6HR MAX TEMP:  23;

BEATRICE       PTCLDY    34  17  51 SE7       30.26R WCI  27
FALLS CITY     MOCLDY    29  17  61 SE12      30.32S WCI  19
6HR MIN TEMP:  27; 6HR MAX TEMP:  32;

NEBRASKA CITY  CLEAR     26  12  55 SE9       30.30F WCI  17
PLATTSMOUTH    CLEAR     24  13  61 SE12      30.30S WCI  13
$$

NEZ044-045-051>053-067-280100-
OMAHA AREA

CITY           SKY/WX    TMP DP  RH WIND       PRES   REMARKS
OMAHA EPPLEY   MOCLDY    22  11  62 SE14      30.32F WCI   9
6HR MIN TEMP:  18; 6HR MAX TEMP:  23;

BLAIR          PTCLDY    22  11  64 SE10      30.28S WCI  11
FREMONT        PTCLDY    24  13  61 SE8       30.28S WCI  16
MILLARD        PTCLDY    24  13  62 SE9       30.30S WCI  15
OFFUTT AFB     PTCLDY    22  12  65 SE9       30.31F WCI  12
PLATTSMOUTH    CLEAR     24  13  61 SE12      30.30S WCI  13
WAHOO          FAIR      24  13  63 SE13      30.27S WCI  12
$$


USA.gov is the U.S. government's official web portal to all federal, state and local government web resources and services.